Fort Leonard Wood, MO

8:14 AM CDT on October 18, 2019 (GMT -0500)
Waynesville Regional At Forney Field

Weather History for KTBN - May, 2019

Change the Weather History Date:

Sunday, May 12, 2019

  Actual Average Record
Temperature  
Mean Temperature 52 °F -  
Max Temperature 61 °F 73 °F 89 °F (2005)
Min Temperature 45 °F 56 °F 32 °F (2013)
Degree Days  
Heating Degree Days 12    
Growing Degree Days 2 (Base 50)    
Moisture  
Dew Point 47 °F    
Average Humidity 89    
Maximum Humidity 100    
Minimum Humidity 60    
Precipitation  
Precipitation 0.09 in - - ()
Sea Level Pressure  
Sea Level Pressure 29.85 in    
Wind  
Wind Speed 2 mph (NW)    
Max Wind Speed 9 mph    
Max Gust Speed -    
Visibility 8 miles    
Events Rain    
Averages and records for this station are not official NWS values.
T = Trace of Precipitation, MM = Missing Value Source: NWS Daily Summary

Daily Weather History Graph

Daily Weather History Graph

Search for Another Location

Airport or City:

Astronomy

May. 12, 2019 Rise Set
Actual Time 6:01 AM CDT 8:08 PM CDT
Civil Twilight 5:32 AM CDT 8:37 PM CDT
Nautical Twilight 4:56 AM CDT 9:13 PM CDT
Astronomical Twilight 4:18 AM CDT 9:52 PM CDT
Moon 1:20 PM CDT (5/12) 2:32 AM CDT (5/12)
Length of Visible Light 15h 05m
Length of Day
14h 07m
First Quarter, 58% of the Moon is Illuminated
May 12
First Quarter
May 18
Full
May 26
Last Quarter
Jun 3
New
Jun 10
First Quarter

Hourly Weather History & Observations

Time (CDT) Temp. Windchill Dew Point Humidity Pressure Visibility Wind Dir Wind Speed Gust Speed Precip Events Conditions
12:56 AM 46.8 °F - 45.7 °F 96% 29.88 in 10.0 mi ENE 3.5 mph - N/A   Overcast
1:02 AM 46.4 °F - 46.4 °F 100% 29.88 in 10.0 mi Calm Calm - N/A Rain Light Rain
1:26 AM 46.4 °F - 46.4 °F 100% 29.88 in 10.0 mi Calm Calm - N/A   Overcast
1:46 AM 46.4 °F - 46.4 °F 100% 29.88 in 10.0 mi Calm Calm - N/A   Overcast
1:56 AM 46.6 °F - 45.5 °F 96% 29.87 in 10.0 mi Calm Calm - 0.01 in   Mostly Cloudy
2:56 AM 45.7 °F - 44.6 °F 96% 29.83 in 10.0 mi Calm Calm - N/A   Overcast
3:36 AM 46.4 °F - 44.6 °F 93% 29.83 in 8.0 mi Calm Calm - N/A   Overcast
3:46 AM 46.4 °F - 46.4 °F 100% 29.83 in 9.0 mi Calm Calm - N/A   Overcast
3:56 AM 46.2 °F 45.0 °F 45.5 °F 97% 29.83 in 8.0 mi SSE 3.5 mph - N/A   Overcast
4:21 AM 46.4 °F - 46.4 °F 100% 29.83 in 10.0 mi Calm Calm - N/A   Overcast
4:56 AM 46.4 °F 45.2 °F 45.7 °F 97% 29.83 in 10.0 mi NNW 3.5 mph - N/A   Overcast
5:01 AM 46.4 °F - 46.4 °F 100% 29.83 in 10.0 mi Calm Calm - N/A   Overcast
5:36 AM 46.4 °F - 46.4 °F 100% 29.85 in 10.0 mi Calm Calm - N/A   Overcast
5:56 AM 46.6 °F - 45.9 °F 97% 29.85 in 10.0 mi Calm Calm - N/A   Overcast
6:46 AM 46.4 °F 45.2 °F 46.4 °F 100% 29.87 in 10.0 mi West 3.5 mph - N/A   Overcast
6:56 AM 46.8 °F - 46.0 °F 97% 29.87 in 10.0 mi Calm Calm - N/A   Overcast
7:56 AM 47.8 °F - 46.9 °F 97% 29.87 in 10.0 mi WNW 3.5 mph - N/A   Overcast
8:26 AM 48.2 °F - 48.2 °F 100% 29.88 in 10.0 mi NNW 6.9 mph - N/A   Overcast
8:56 AM 49.3 °F - 47.3 °F 93% 29.87 in 10.0 mi North 4.6 mph - N/A   Overcast
9:01 AM 50.0 °F - 48.2 °F 94% 29.88 in 10.0 mi Calm Calm - N/A   Overcast
9:36 AM 51.8 °F - 46.4 °F 82% 29.85 in 10.0 mi Calm Calm - N/A   Mostly Cloudy
9:41 AM 51.8 °F - 46.4 °F 82% 29.85 in 10.0 mi ENE 3.5 mph - N/A   Scattered Clouds
9:46 AM 51.8 °F - 46.4 °F 82% 29.86 in 10.0 mi WNW 3.5 mph - N/A   Mostly Cloudy
9:56 AM 51.3 °F - 46.0 °F 82% 29.86 in 10.0 mi NW 5.8 mph - N/A   Mostly Cloudy
10:16 AM 53.6 °F - 46.4 °F 77% 29.86 in 10.0 mi NW 4.6 mph - N/A   Mostly Cloudy
10:46 AM 55.4 °F - 44.6 °F 67% 29.85 in 10.0 mi North 5.8 mph - N/A   Mostly Cloudy
10:56 AM 54.5 °F - 45.0 °F 70% 29.86 in 10.0 mi West 4.6 mph - N/A   Mostly Cloudy
11:11 AM 55.4 °F - 44.6 °F 67% 29.85 in 10.0 mi Calm Calm - N/A   Scattered Clouds
11:56 AM 57.0 °F - 44.1 °F 62% 29.84 in 10.0 mi Calm Calm - N/A   Mostly Cloudy
12:56 PM 59.0 °F - 45.1 °F 60% 29.83 in 10.0 mi Calm Calm - N/A   Mostly Cloudy
1:56 PM 58.5 °F - 45.5 °F 62% 29.83 in 10.0 mi Calm Calm - N/A   Overcast
2:56 PM 59.5 °F - 45.7 °F 60% 29.82 in 10.0 mi West 4.6 mph - N/A   Mostly Cloudy
3:56 PM 60.8 °F - 47.3 °F 61% 29.80 in 10.0 mi NNW 3.5 mph - N/A   Mostly Cloudy
4:07 PM 59.0 °F - 46.4 °F 63% 29.80 in 10.0 mi North 4.6 mph - N/A   Light Drizzle
4:27 PM 55.4 °F - 50.0 °F 82% 29.82 in 6.0 mi NNW 6.9 mph - N/A Rain Light Rain
4:56 PM 54.3 °F - 50.9 °F 88% 29.82 in 10.0 mi NNW 9.2 mph - 0.08 in Rain Light Rain
5:05 PM 53.6 °F - 50.0 °F 88% 29.81 in 10.0 mi North 5.8 mph - N/A   Mostly Cloudy
5:56 PM 54.9 °F - 49.5 °F 82% 29.83 in 10.0 mi NW 4.6 mph - 0.00 in   Partly Cloudy
6:56 PM 54.5 °F - 50.4 °F 86% 29.84 in 10.0 mi WNW 4.6 mph - N/A   Scattered Clouds
7:00 PM 55.4 °F - 50.0 °F 82% 29.84 in 10.0 mi WNW 4.6 mph - N/A   Light Drizzle
7:10 PM 53.6 °F - 51.8 °F 94% 29.84 in 10.0 mi Calm Calm - N/A   Partly Cloudy
7:56 PM 54.0 °F - 51.6 °F 92% 29.85 in 10.0 mi West 3.5 mph - 0.00 in   Partly Cloudy
8:56 PM 50.0 °F - 48.4 °F 94% 29.86 in 10.0 mi Calm Calm - N/A   Clear
9:47 PM 48.2 °F - 46.4 °F 93% 29.87 in 1.8 mi Calm Calm - N/A   Clear
9:52 PM 48.2 °F - 48.2 °F 100% 29.87 in 4.0 mi Calm Calm - N/A   Clear
9:56 PM 49.1 °F - 48.0 °F 96% 29.88 in 8.0 mi Calm Calm - N/A   Clear
10:31 PM 48.2 °F - 46.4 °F 93% 29.88 in 1.9 mi Calm Calm - N/A   Clear
10:51 PM 48.2 °F - 48.2 °F 100% 29.88 in 2.0 mi Calm Calm - N/A   Clear
10:56 PM 48.4 °F - 47.5 °F 97% 29.89 in 2.0 mi Calm Calm - N/A   Clear
11:06 PM 48.2 °F - 48.2 °F 100% 29.88 in 4.0 mi Calm Calm - N/A   Clear
11:21 PM 48.2 °F - 46.4 °F 93% 29.89 in 1.1 mi Calm Calm - N/A   Clear
11:26 PM 46.4 °F - 44.6 °F 93% 29.89 in 0.8 mi Calm Calm - N/A   Clear
11:36 PM 48.2 °F - 46.4 °F 93% 29.89 in 1.4 mi Calm Calm - N/A   Clear
11:41 PM 48.2 °F - 48.2 °F 100% 29.89 in 5.0 mi Calm Calm - N/A   Clear
11:56 PM 48.0 °F - 46.9 °F 96% 29.89 in 10.0 mi Calm Calm - N/A   Clear